Regional Weather Roundup
Issued by NWS Charleston, WV

Home | Current Version | Previous Version | Text Only | Print | Product List | Glossary Off
Versions: 1 2 3 4 5 6 7 8 9 10 11 12 13 14 15 16 17 18 19 20 21 22 23 24 25 26 27 28 29 30 31 32 33 34 35 36 37 38 39 40 41 42 43 44 45 46 47 48 49 50

000
ASUS41 KRLX 131110
RWRRLX
West Virginia Regional Weather Roundup
National Weather Service Charleston WV
600 AM EST SAT FEB 13 2016

Note: "fair" indicates few or no clouds below 12,000 feet with no
significant weather and/or obstructions to visibility.

WVZ003-131200-
Northern Panhandle of West Virginia

CITY           SKY/WX    TMP DP  RH WIND       PRES   REMARKS
WHEELING         N/A      8  -6  52 NW13      30.24R WCI  -8
$$

WVZ009-131200-
Northwest West Virginia

CITY           SKY/WX    TMP DP  RH WIND       PRES   REMARKS
PARKERSBURG      N/A     12   2  64 NW8       30.35R WCI   0
$$

WVZ006-131200-
Western West Virginia

CITY           SKY/WX    TMP DP  RH WIND       PRES   REMARKS
HUNTINGTON       N/A     15   3  59 NW7       30.38R WCI   5
$$

WVZ015-131200-
West Central West Virginia

CITY           SKY/WX    TMP DP  RH WIND       PRES   REMARKS
CHARLESTON       N/A     15   3  59 N13G18    30.34R WCI   1
$$

WVZ022-031-131200-
North Central West Virginia

CITY           SKY/WX    TMP DP  RH WIND       PRES   REMARKS
CLARKSBURG     FLURRIES  12   5  73 W14       30.22R WCI  -3
MORGANTOWN     CLOUDY    11  -1  58 VRB7      30.21R WCI   0
$$

WVZ025-035-042-045-131200-
Southern West Virginia

CITY           SKY/WX    TMP DP  RH WIND       PRES   REMARKS
BECKLEY        LGT SNOW  10   4  76 NW10      30.15R WCI  -4
LOGAN          FLURRIES  14   7  73 N8G15     30.27R WCI   3
BLUEFIELD      LGT SNOW   9   3  77 NW10G24   30.12R WCI  -5
LEWISBURG      CLOUDY    13   4  64 NW9       30.13R WCI   1
$$

WVZ047-131200-
Northern Mountains of West Virginia

CITY           SKY/WX    TMP DP  RH WIND       PRES   REMARKS
ELKINS         LGT SNOW   9   1  70 NW17      30.14R WCI  -9
$$

WVZ052-131200-
Eastern Panhandle of West Virginia

CITY           SKY/WX    TMP DP  RH WIND       PRES   REMARKS
MARTINSBURG    CLOUDY    18   5  57 NW14      30.11R WCI   4
PETERSBURG     CLOUDY    16   2  53 NW8G28    30.17R WCI   5
$$



USA.gov is the U.S. government's official web portal to all federal, state and local government web resources and services.